Regional Weather Roundup
Issued by NWS

Home | Current Version | Previous Version | Text Only | Print | Product List | Glossary On
Versions: 1 2 3 4 5 6 7 8 9 10 11 12 13 14 15 16 17 18 19 20 21 22 23 24 25 26 27 28 29 30 31 32 33 34 35 36 37 38 39 40 41 42 43 44 45 46 47 48 49 50
000
ASUS44 KLUB 210810
RWRTX
WEST TEXAS WEATHER ROUNDUP
NATIONAL WEATHER SERVICE LUBBOCK TX
200 AM CST SUN DEC 21 2014

NOTE: "FAIR" INDICATES FEW OR NO CLOUDS BELOW 12,000 FEET WITH NO
SIGNIFICANT WEATHER AND/OR OBSTRUCTIONS TO VISIBILITY.

TXZ004-006>008-010-012-014-016-OKZ002-210900-
TEXAS PANHANDLE/OKLAHOMA PANHANDLE

CITY           SKY/WX    TMP DP  RH WIND       PRES   REMARKS
AMARILLO       CLOUDY    40  39  97 S17       29.95F FOG     WCI  31
BORGER         CLOUDY    42  38  85 SW14G22   29.96S
CANADIAN       CLOUDY    41  40  97 S9        29.98F
DALHART        MOCLDY    27  22  81 SW5       29.90F WCI  22
DUMAS          MOCLDY    29  28  96 SE8       29.91F WCI  21
GUYMON         CLOUDY    30  28  92 S3        29.93S
HEREFORD       CLOUDY    35  33  92 SW7       29.95S WCI  29
PAMPA          CLOUDY    40  38  95 S16       29.96F FOG     WCI  31
PERRYTON       MOCLDY    34  33  97 S8        29.96S WCI  27
$$

TXZ026-029-035-045-048-210900-
SOUTHERN PANHANDLE/SOUTH PLAINS/ROLLING PLAINS

CITY           SKY/WX    TMP DP  RH WIND       PRES   REMARKS
CHILDRESS      CLOUDY    41  39  93 SE13      30.03F
SEMINOLE       FOG       40  40  99 SW10      30.01F VSB 3/4 WCI  34
LUBBOCK        CLOUDY    43  42  97 S17       29.98F FOG
PLAINVIEW      CLOUDY    42  40  93 SW16G22   29.96F
SNYDER         CLOUDY    43  40  90 S6        30.03F
$$

TXZ052-054-060>062-072-078-127-140-154-169-210900-
PERMIAN BASIN/CONCHO VALLEY/BIG COUNTRY/EDWARDS PLATEAU

CITY           SKY/WX    TMP DP  RH WIND       PRES   REMARKS
ABILENE        CLOUDY    43  39  86 SE13      30.06F
BIG SPRING     CLOUDY    47  42  82 S13G18    30.05S
BROWNWOOD      CLOUDY    45  41  87 SE6       30.12F
JUNCTION       CLOUDY    49  43  80 SW6       30.10F
MIDLAND        PTCLDY    43  41  93 S3        30.02F FOG
ODESSA         CLOUDY    45  42  89 S12       30.02F FOG
SAN ANGELO     CLOUDY    49  43  80 SW7       30.07F
SONORA         CLOUDY    48  45  87 S10       30.13F
SWEETWATER     CLEAR     43  43 100 S15       30.05F
WINK           FOG       37  35  92 SE3       30.00F VSB 1/4
$$

TXZ055-058-074-075-080-082-210900-
FAR WEST/SOUTHWEST MOUNTAINS/TRANS PECOS

CITY           SKY/WX    TMP DP  RH WIND       PRES   REMARKS
ALPINE         CLEAR     43  28  56 SW9       30.12F
DRYDEN           N/A     49  48  97 SE6       30.06F
EL PASO        CLOUDY    46  31  55 S8        30.05F
FORT STOCKTON  CLEAR     43  33  68 SW12      30.02F
MARFA          CLEAR     27  21  80 SE6       30.10F WCI  20
PECOS          CLEAR     35  26  69 W5        30.02F WCI  31
PRESIDIO       FAIR      41  31  69 CALM      30.07F
$$

TXZ014-016-019-021>030-083-210900
TEXAS TECH WEST TEXAS MESONET/TEXAS PANHANDLE/NORTHERN SOUTH PLAINS

CITY           SKY/WX    TMP DP  RH WIND       PRES   REMARKS
ABERNATHY 5ENE   N/A     42  42  97 S14       29.99F
AMARILLO 9NNE    N/A     38  37  94 S8        29.94S WCI  32
AMARILLO 7SSE    N/A     38  37  97 S14       29.96S WCI  30
AMHERST 1NE      N/A     34  34  99 S7        29.96F WCI  28
BOOTLEG 11WNW    N/A     34  20  57 SW13      29.93F WCI  25
CANADIAN 6E      N/A     39  38  97 SE9       29.97F WCI  33
CAPROCK CYN SP   N/A     37  37  99 S8        29.98F WCI  31
CHILDRESS 2NNE   N/A     40  39  97 SE12      30.02F WCI  32
CLARENDON 2WSW   N/A     41  38  88 SE12      29.97F
CLAUDE 12SW      N/A     40  40  99 S10       29.96S WCI  34
DIMMITT 2NE      N/A     34  33  98 S12       29.94F WCI  25
FLOYDADA 2NNE    N/A     43  42  97 S17       29.98F
FRIONA 2NE       N/A     32  23  70 SW7       29.94S WCI  26
GOODLETT 3W      N/A     41  40  95 SE12      30.03F
HART 3N          N/A     37  36  99 S12       29.95S WCI  29
HEREFORD 2NW     N/A     32  27  83 S6        29.93F WCI  26
MCLEAN 1E        N/A     38  38  97 S12       29.97F WCI  31
MEMPHIS 1NE      N/A     42  39  89 SE9       30.02F
MULESHOE 2SSW    N/A     32  26  79 W3        29.96S
OLTON 6S         N/A     37  36  96 S9        29.96F WCI  30
PALO DURO SP     N/A     41  38  90 S8        29.97S
PAMPA 2E         N/A     39  38  99 SE14      29.96F WCI  31
PLAINVIEW 1S     N/A     42  40  96 S15       29.96F
SILVERTON 7ESE   N/A     42  41  93 S16       29.97F
TULIA 2ENE       N/A     40  40  99 S15       29.96F WCI  32
TURKEY 2WSW      N/A     37  36  98 SE7       29.98F WCI  31
UMBARGER 3NNE    N/A     35  34  96 S9        29.95S WCI  28
$$

TXZ033>036-039>041-045>048-210900
TEXAS TECH WEST TEXAS MESONET/SOUTH PLAINS

CITY           SKY/WX    TMP DP  RH WIND       PRES   REMARKS
AIKEN 3WSW       N/A     42  42  97 S12       29.98F
ANDREWS 2NE      N/A     42  40  94 S14       30.01S
ANTON 6SSW       N/A     37  36  98 S9        29.97F WCI  30
BROWNFIELD 2S    N/A     39  38  99 S10       30.00S WCI  32
DENVR CTY 7WNW   N/A     38  37  98 SW13      29.99S WCI  30
GAIL 2ESE        N/A     46  42  86 S12       30.02F
LAMESA 2SE       N/A     42  41  98 S13       30.02F
LEVELLAND 4S     N/A     33  32  95 S6        29.97F WCI  28
LUBBOCK 3WNW     N/A     42  41  97 S13       29.99F
MORTON 1ENE      N/A     36  28  74 SW13      29.96F WCI  27
ODONNELL 1N      N/A     41  40  96 S10       30.01F
PLAINS 3N        N/A     36  35  97 SW8       29.99R WCI  30
RALLS 1SE        N/A     43  42  97 S15       30.00F
REESE CENTER     N/A     40  39  99 S14       29.98F WCI  32
SEAGRAVES 1SW    N/A     39  39  98 S10       29.99F WCI  32
SEMINOLE 2NNE    N/A     41  40  95 S10       30.00F
SLATON 2NE       N/A     42  42  97 S17       29.99F
SNYDER 3E        N/A     44  42  90 S8        30.02F
SUNDOWN 8SW      N/A     31  29  92 SW9       29.97F WCI  22
TAHOKA 3NNE      N/A     42  42  97 S13       29.99F
WOLFFORTH 6SSW   N/A     41  41  99 S14       29.99F
$$

TXZ031-032-036>038-042>044-210900-
TEXAS TECH WEST TEXAS MESONET/ROLLING PLAINS

CITY           SKY/WX    TMP DP  RH WIND       PRES   REMARKS
ASPERMONT 3NE    N/A     41  39  91 SE7       30.04F
FLUVANNA 3WNW    N/A     44  41  89 S10       30.01F
GRAHAM 5SSW      N/A     43  41  91 S15       30.01S
GUTHRIE 10WSW    N/A     44  40  86 S12       30.01F
HASKELL 1NW      N/A     42  39  89 SE9       30.05F
JAYTON 1SSE      N/A     44  40  86 S7        30.03F
KNOX CITY 3NW    N/A     45  39  81 S15       30.06S
LK A HENRY 1NW   N/A     47  43  85 S7        30.02S
NORTHFIELD 1S    N/A     37  36  98 E6        30.01F WCI  32
ODELL 4ENE       N/A     42  40  95 SE13      30.06S
PADUCAH 10SW     N/A     36  35  96 S7        30.01F WCI  30
POST 1NE         N/A     45  42  89 S7        30.01F
SEYMOUR 3NW      N/A     44  40  89 S13       30.06F
SPUR 1W          N/A     44  41  89 S3        30.01F
WHITE RVR 6NE    N/A     44  41  91 S12       30.00F
$$

TXZ052-054-060>062-072-078-127-140-154-169-210900-
TEXAS TECH WEST TEXAS MESONET/PERMIAN BASIN/
CONCHO VALLEY/BIG COUNTRY/EDWARDS PLATEAU

CITY           SKY/WX    TMP DP  RH WIND       PRES   REMARKS
COYANOSA 2N      N/A     35  34  96 S8        30.02F WCI  29
JUNCTION 1SSW    N/A     48  43  82 SW5       30.11S
MERTZON 3NNE     N/A     48  45  89 S9        30.07F
SAN ANGELO 7NW   N/A     48  42  79 S7        30.07F
STRLNG CT 4WSW   N/A     48  44  85 SE7       30.04F
ST LAWRNCE 5SW   N/A     47  44  87 S15       30.02F
SWEETWATR 11SW   N/A     40  39  95 SE9       30.03F WCI  35
WALL 1E          N/A     46  40  81 SE6       30.08F
$$

TXZ055-058-074-075-080-082-210900-
TEXAS TECH WEST TEXAS MESONET/FAR WEST/SOUTHWEST MOUNTAINS/TRANS PECOS

CITY           SKY/WX    TMP DP  RH WIND       PRES   REMARKS
PRSMN GAP BBNP   N/A     46  44  90 NE7       30.07F
$$


USA.gov is the U.S. government's official web portal to all federal, state and local government web resources and services.